Preview of NWS' New Version of Forecast
This preview is not operational and should not be used for support decisions.

Regional Weather Roundup (RWR)

Issued by National Weather Service (NWS)

                            
000
ASUS44 KMEG 221010
RWRTN 
TENNESSEE HOURLY STATE WEATHER ROUNDUP
NATIONAL WEATHER SERVICE MEMPHIS TN
500 AM CDT MON JUL 22 2019

TNZ002-004-019-021-049-052-054-088>092-221100-
WEST TENNESSEE
  
CITY           SKY/WX    TMP DP  RH WIND       PRES   REMARKS
MEMPHIS INTL   MOCLDY    77  76  96 S8        29.93S                  
NWS MEMPHIS      N/A     77 N/A N/A MISG        N/A                   
JACKSON        CLOUDY    76  75  97 S7        29.95R                  
DYERSBURG      FAIR      76  75  97 SE3       29.92S                  
SOMERVILLE     CLOUDY    75  75 100 S6        29.93S                  
COVINGTON      PTCLDY    75  75 100 CALM      29.91F FOG              
UNION CITY     MOCLDY    77  75  94 S5        29.90R                  
BOLIVAR        CLOUDY    75  73  94 S6        29.94R                  
PARIS          MOCLDY    75  73  94 CALM      29.93R FOG              
HUNTINGDON     CLEAR     75  73  94 CALM      29.93R                  
LEXINGTON      CLOUDY    75  73  94 CALM      29.94S                  
SELMER         CLOUDY    75  73  94 SW7       29.95S                  
SAVANNAH       CLOUDY    75  75 100 SW7       29.95R                  
$$

TNZ008-025-027-028-033-062-065-066-221100-
NORTH MIDDLE TENNESSEE
  
CITY           SKY/WX    TMP DP  RH WIND       PRES   REMARKS
NASHVILLE      CLOUDY    78  73  84 S6        29.94F                  
PORTLAND       CLOUDY    77  75  94 S7        29.93S                  
CLARKSVILLE    FAIR      77  75  93 SW7       29.92R                  
LEBANON        CLOUDY    75  73  94 S6        29.93S                  
SMYRNA         CLOUDY    75  74  96 SE5       29.96S                  
MURFREESBORO   CLOUDY    75  72  88 SW6       29.95R                  
LIVINGSTON     CLOUDY    73  70  88 SW7       29.97S                  
GALLATIN       CLOUDY    77  75  94 SE5       29.96S                  
CROSSVILLE     FAIR      70  68  93 SW3       30.03R                  
ROCKWOOD       PTSUNNY   72  70  94 SW6       30.01R                  
$$

TNZ061-075-076-078-094-096-097-221100-
SOUTH MIDDLE TENNESSEE
  
CITY           SKY/WX    TMP DP  RH WIND       PRES   REMARKS
LAWRENCEBURG   PTSUNNY   73  72  94 CALM      29.97S                  
LEWISBURG      MOSUNNY   73  72  94 CALM      29.96S                  
FAYETTEVILLE   MOCLDY    73  73 100 CALM      29.98R                  
TULLAHOMA      MOCLDY    73  72  94 CALM      29.98R                  
WINCHESTER     PTCLDY    73  72  94 CALM      29.98S                  
MCMINNVILLE    MOCLDY    72  72 100 W6        29.98R                  
COLUMBIA       CLOUDY    75  75 100 SE5       29.94F                  
SHELBYVILLE    CLOUDY    73  72  94 CALM      29.97R                  
$$

TNZ017-018-042-046-047-221100-
NORTHEAST TENNESSEE
  
CITY           SKY/WX    TMP DP  RH WIND       PRES   REMARKS
TRI CITIES     TSTM      74  71  91 W12G20    30.03R                  
ELIZABETHTON   CLOUDY    72  72 100 CALM      30.01S                  
GREENEVILLE    CLOUDY    72  70  94 CALM      30.02R                  
$$

TNZ012-013-036-069-073-074-221100-
CENTRAL EAST TENNESSEE
  
CITY           SKY/WX    TMP DP  RH WIND       PRES   REMARKS
KNOXVILLE      MOCLDY    75  70  84 S9        29.97S                  
OAK RIDGE      FAIR      76  71  85 CALM      29.98S                  
DOWNTOWN KNOXV PTCLDY    73  73 100 CALM      29.98R FOG              
GATLINBURG     CLOUDY    73  72  94 S5        29.98S FOG              
MORRISTOWN     MOCLDY    72  72 100 CALM      29.99S                  
JACKSBORO      CLOUDY    72  72 100 CALM      30.01S                  
$$

TNZ083-085-099-221100-
SOUTHEAST TENNESSEE
  
CITY           SKY/WX    TMP DP  RH WIND       PRES   REMARKS
CHATTANOOGA    FAIR      77  73  87 S5        29.98R                  
DAYTON         CLOUDY    77  73  88 CALM      29.96R                  
$$

SKY/WX REPORTED AS FAIR MEANS FEW OR NO CLOUDS BELOW
12 THOUSAND FEET.